Baudette, MN

6:13 PM CST on February 27, 2017 (GMT -0600)
Baudette International

Weather History for KBDE - January, 2013

Change the Weather History Date:

Wednesday, January 9, 2013

  Actual Average Record
Temperature  
Mean Temperature 24 °F -  
Max Temperature 28 °F 13 °F 43 °F (1958)
Min Temperature 19 °F -10 °F -38 °F (1993)
Degree Days  
Heating Degree Days 42    
Moisture  
Dew Point 20 °F    
Average Humidity 78    
Maximum Humidity 86    
Minimum Humidity 69    
Precipitation  
Precipitation 0.00 in - - ()
Sea Level Pressure  
Sea Level Pressure 29.89 in    
Wind  
Wind Speed 11 mph (West)    
Max Wind Speed 17 mph    
Max Gust Speed 30 mph    
Visibility 8 miles    
Events Snow    
Averages and records for this station are not official NWS values.
T = Trace of Precipitation, MM = Missing Value Source: NWS Daily Summary

Daily Weather History Graph

Daily Weather History Graph

Search for Another Location

Airport or City:

Trip Planner

Search our weather history database for the weather conditions in past years. The results will help you decide how hot, cold, wet, or windy it might be!

Date:

Astronomy

Jan. 09, 2013 Rise Set
Actual Time 8:09 AM CST 4:42 PM CST
Civil Twilight 7:33 AM CST 5:18 PM CST
Nautical Twilight 6:53 AM CST 5:58 PM CST
Astronomical Twilight 6:15 AM CST 6:36 PM CST
Moon 5:49 AM CST (1/9) 2:44 PM CST (1/9)
Length of Visible Light 9h 45m
Length of Day
8h 33m
Waning Crescent, 6% of the Moon is Illuminated
Jan 9
Waning Crescent
Jan 11
New
Jan 18
First Quarter
Jan 26
Full
Feb 3
Last Quarter

Hourly Weather History & Observations

Time (CST) Temp. Windchill Dew Point Humidity Pressure Visibility Wind Dir Wind Speed Gust Speed Precip Events Conditions
12:53 AM 28.9 °F 17.3 °F 23.0 °F 78% 29.59 in 10.0 mi SW 16.1 mph - N/A   Overcast
1:53 AM 28.9 °F 17.7 °F 24.1 °F 82% 29.60 in 8.0 mi SW 15.0 mph 25.3 mph 0.00 in Snow Light Snow
2:03 AM 28.4 °F 18.0 °F 24.8 °F 86% 29.56 in 1.5 mi WSW 12.7 mph 24.2 mph 0.00 in Snow Light Snow
2:05 AM 28.4 °F 16.2 °F 24.8 °F 86% 29.56 in 1.0 mi WSW 17.3 mph 26.5 mph 0.00 in Snow Light Snow
2:13 AM 28.4 °F 21.2 °F 24.8 °F 86% 29.57 in 1.5 mi Variable 6.9 mph 26.5 mph 0.00 in Snow Light Snow
2:16 AM 28.4 °F 21.2 °F 24.8 °F 86% 29.57 in 3.0 mi Variable 6.9 mph 24.2 mph 0.00 in Snow Light Snow
2:47 AM 26.6 °F 19.1 °F 21.2 °F 80% 29.59 in 2.5 mi Variable 6.9 mph 23.0 mph 0.00 in Snow Light Snow
2:51 AM 26.6 °F 15.7 °F 21.2 °F 80% 29.59 in 1.8 mi West 12.7 mph 25.3 mph 0.00 in Snow Light Snow
2:53 AM 27.0 °F 16.7 °F 21.9 °F 81% 29.64 in 1.8 mi West 11.5 mph 25.3 mph 0.00 in Snow Light Snow
3:04 AM 26.6 °F 18.2 °F 21.2 °F 80% 29.60 in 2.5 mi West 8.1 mph 20.7 mph 0.00 in Snow Light Snow
3:15 AM 26.6 °F 16.8 °F 21.2 °F 80% 29.61 in 3.0 mi West 10.4 mph 28.8 mph 0.00 in Snow Light Snow
3:32 AM 26.6 °F 15.7 °F 19.4 °F 74% 29.62 in 6.0 mi WNW 12.7 mph 25.3 mph 0.00 in   Haze
3:44 AM 26.6 °F 17.5 °F 19.4 °F 74% 29.62 in 6.0 mi WNW 9.2 mph 27.6 mph 0.00 in Snow Light Snow
3:53 AM 26.1 °F 15.0 °F 21.0 °F 81% 29.68 in 7.0 mi WNW 12.7 mph 26.5 mph 0.00 in Snow Light Snow
4:53 AM 25.0 °F 12.2 °F 19.0 °F 78% 29.73 in 5.0 mi WNW 16.1 mph 29.9 mph 0.00 in Snow Light Snow
5:53 AM 25.0 °F 13.6 °F 19.9 °F 81% 29.80 in 9.0 mi WNW 12.7 mph 29.9 mph 0.00 in   Overcast
6:53 AM 26.1 °F 15.6 °F 21.0 °F 81% 29.85 in 10.0 mi WNW 11.5 mph 20.7 mph N/A   Overcast
7:30 AM 26.6 °F 16.8 °F 21.2 °F 80% 29.84 in 10.0 mi WNW 10.4 mph 24.2 mph N/A   Overcast
7:53 AM 26.1 °F 14.0 °F 19.9 °F 78% 29.93 in 10.0 mi WNW 15.0 mph 20.7 mph N/A   Overcast
8:38 AM 24.8 °F 14.0 °F 19.4 °F 80% 29.92 in 10.0 mi WNW 11.5 mph 19.6 mph N/A   Overcast
8:53 AM 26.1 °F 15.0 °F 19.9 °F 78% 29.99 in 10.0 mi WNW 12.7 mph 21.9 mph N/A   Overcast
9:53 AM 25.0 °F 14.8 °F 19.0 °F 78% 30.04 in 10.0 mi WNW 10.4 mph 24.2 mph N/A   Overcast
10:53 AM 26.1 °F 14.0 °F 19.0 °F 75% 30.09 in 10.0 mi WNW 15.0 mph 24.2 mph N/A   Overcast
11:53 AM 26.1 °F 18.4 °F 19.0 °F 75% 30.12 in 10.0 mi Variable 6.9 mph - N/A   Overcast
12:53 PM 26.1 °F 18.4 °F 18.0 °F 71% 30.11 in 10.0 mi Variable 6.9 mph - N/A   Overcast
1:53 PM 26.1 °F 18.4 °F 18.0 °F 71% 30.14 in 10.0 mi Variable 6.9 mph - N/A   Overcast
2:53 PM 26.1 °F 20.5 °F 17.1 °F 69% 30.19 in 10.0 mi West 4.6 mph - N/A   Overcast
3:53 PM 25.0 °F - 16.0 °F 69% 30.23 in 10.0 mi Calm Calm - N/A   Scattered Clouds
4:53 PM 21.0 °F - 15.1 °F 78% 30.23 in 10.0 mi Calm Calm - N/A   Scattered Clouds
5:53 PM 21.0 °F 14.6 °F 15.1 °F 78% 30.23 in 10.0 mi South 4.6 mph - N/A   Overcast
6:53 PM 24.1 °F 14.4 °F 17.1 °F 75% 30.22 in 10.0 mi South 9.2 mph - N/A   Overcast
7:53 PM 24.1 °F 19.7 °F 17.1 °F 75% 30.20 in 10.0 mi SSE 3.5 mph - N/A   Overcast
8:53 PM 23.0 °F 14.7 °F 17.1 °F 78% 30.17 in 10.0 mi ESE 6.9 mph - N/A   Overcast
9:53 PM 21.9 °F 14.5 °F 16.0 °F 78% 30.18 in 10.0 mi SE 5.8 mph - N/A   Scattered Clouds
10:53 PM 19.9 °F 10.1 °F 15.1 °F 81% 30.15 in 10.0 mi ESE 8.1 mph - N/A   Clear
11:53 PM 21.0 °F 12.4 °F 16.0 °F 81% 30.13 in 10.0 mi SE 6.9 mph - N/A   Clear